Location: Seven Kings
(51.5667°N, 0.1000°E)
Time: 06:09:36
(UTC+00:00)

X-37B - Pass Details

Date: 24 June 2021
Orbit: 383 x 392 km, 45.0° (Epoch: 01 July)

Event Time Altitude Azimuth Distance (km) Brightness Sun altitude
Rises 21:07:20 0° 219° (SW) 2,250 4.3 -5.8°
Reaches altitude 10° 21:10:02 10° 194° (SSW) 1,399 3.0 -6.1°
Maximum altitude 21:11:51 14° 159° (SSE) 1,167 2.4 -6.3°
Drops below altitude 10° 21:13:39 10° 123° (ESE) 1,402 2.8 -6.4°
Enters shadow 21:15:02 - 107° (ESE) 1,797 3.5 -6.6°
